This demonstration page uses our WeatherBlox Daily Observations layout. Learn more.

40.92945, -100.16068

Hourly Observations for June 20, 2015

Temp ( °F °C ) Dew Point ( °F °C ) Humidity (%) Winds ( mph kmh ) Pressure ( in mb ) Visibility ( mi km ) Precip ( " mm )
12:15 am 00:15 Clear 76 24.3 69 20.8 81 81 SSE 13 20 29.65 1004 10 16.0934 N/A
12:35 am 00:35 Clear 76 24.7 68 20.1 76 76 S 15 24 29.62 1003 10 16.0934 N/A
12:55 am 00:55 Clear 76 24.6 68 20 76 76 S 20 31 29.62 1003 10 16.0934 N/A
1:15 am 01:15 Clear 76 24.2 68 20 77 77 S 18 30 29.62 1003 10 16.0934 N/A
1:35 am 01:35 Clear 75 24 68 19.9 78 78 S 16 26 29.62 1003 10 16.0934 N/A
1:55 am 01:55 Clear 75 23.7 68 20 80 80 S 15 24 29.65 1004 10 16.0934 N/A
2:15 am 02:15 Clear 74 23.5 68 20 81 81 S 15 24 29.65 1004 10 16.0934 N/A
2:35 am 02:35 Clear 74 23.2 68 20.1 83 83 S 16 26 29.62 1003 10 16.0934 N/A
2:55 am 02:55 Clear 73 23 68 20 83 83 S 13 20 29.62 1003 10 16.0934 N/A
3:15 am 03:15 Clear 73 23 68 20 83 83 S 15 24 29.62 1003 10 16.0934 N/A
3:35 am 03:35 Clear 73 22.7 68 20 85 85 S 15 24 29.62 1003 10 16.0934 N/A
3:55 am 03:55 Clear 73 22.5 68 20 86 86 S 15 24 29.62 1003 10 16.0934 N/A
4:15 am 04:15 Clear 73 22.5 68 20 86 86 S 13 20 29.59 1002 10 16.0934 N/A
4:35 am 04:35 Clear 73 22.5 68 19.9 85 85 S 10 17 29.59 1002 10 16.0934 N/A
4:55 am 04:55 Clear 72 22.3 68 19.8 86 86 S 9 15 29.59 1002 10 16.0934 N/A
5:15 am 05:15 Clear 72 22 67 19.5 86 86 S 10 17 29.59 1002 10 16.0934 N/A
5:35 am 05:35 Clear 71 21.7 67 19.3 86 86 S 12 19 29.59 1002 10 16.0934 N/A
5:55 am 05:55 Clear 74 23.5 70 20.9 85 85 WSW 5 7 29.62 1003 10 16.0934 N/A
6:15 am 06:15 Sunny 70 21 66 18.9 88 88 N 17 28 29.65 1004 10 16.0934 N/A
6:35 am 06:35 Sunny 70 21.2 66 18.9 87 87 NE 3 6 29.62 1003 10 16.0934 N/A
6:55 am 06:55 Sunny 69 20.8 66 18.9 89 89 NE 3 6 29.65 1004 10 16.0934 N/A
7:15 am 07:15 Sunny 70 21.2 67 19.4 90 90 NNE 3 6 29.65 1004 10 16.0934 N/A
7:35 am 07:35 Sunny 72 22.1 68 20.1 88 88 Calm 29.62 1003 10 16.0934 N/A
7:55 am 07:55 Sunny 73 22.9 69 20.5 86 86 Calm 29.65 1004 10 16.0934 N/A
8:15 am 08:15 Sunny 74 23.6 68 19.8 79 79 Calm 29.65 1004 10 16.0934 N/A
8:35 am 08:35 Sunny 76 24.3 67 19.3 74 74 Calm 29.65 1004 10 16.0934 N/A
8:55 am 08:55 Sunny 76 24.6 67 19.5 73 73 WNW 3 6 29.62 1003 10 16.0934 N/A
9:15 am 09:15 Sunny 77 24.8 68 20.1 75 75 NW 5 7 29.62 1003 10 16.0934 N/A
9:35 am 09:35 Sunny 78 25.4 69 20.8 76 76 NNW 6 9 29.65 1004 10 16.0934 N/A
9:55 am 09:55 Sunny 78 25.8 70 21 75 75 NNW 7 11 29.65 1004 10 16.0934 N/A
10:15 am 10:15 Sunny 80 26.6 70 21.3 73 73 NNW 14 22 29.65 1004 10 16.0934 N/A
10:35 am 10:35 Sunny 79 26 70 21 74 74 NNW 10 17 29.65 1004 10 16.0934 N/A
10:55 am 10:55 Sunny 80 26.5 71 21.6 75 75 N 14 22 29.65 1004 10 16.0934 N/A
11:15 am 11:15 Sunny 81 27 71 21.9 74 74 N 14 22 29.65 1004 10 16.0934 N/A
11:35 am 11:35 Sunny 82 27.5 72 22.4 74 74 NNW 15 24 29.68 1005 10 16.0934 N/A
11:55 am 11:55 Sunny 81 27.4 72 22.1 73 73 N 15 24 29.68 1005 10 16.0934 N/A
12:15 pm 12:15 Sunny 82 27.6 71 21.7 70 70 N 15 24 29.68 1005 10 16.0934 N/A
12:35 pm 12:35 Sunny 83 28.1 72 22.2 70 70 N 17 28 29.71 1006 10 16.0934 N/A
12:55 pm 12:55 Sunny 83 28.1 71 21.4 67 67 NNE 17 28 29.71 1006 10 16.0934 N/A
1:15 pm 13:15 Sunny 83 28.6 72 22.3 69 69 NNE 14 22 29.68 1005 10 16.0934 N/A
1:35 pm 13:35 Sunny 83 28.6 71 21.6 66 66 NNE 15 24 29.68 1005 10 16.0934 N/A
1:55 pm 13:55 Sunny 83 28.5 69 20.4 62 62 NNE 15 24 29.74 1007 10 16.0934 N/A
2:15 pm 14:15 Sunny 83 28.5 68 20.1 60 60 NNE 14 22 29.74 1007 10 16.0934 N/A
2:35 pm 14:35 Sunny 84 28.7 68 20 59 59 NNE 13 20 29.74 1007 10 16.0934 N/A
2:55 pm 14:55 Sunny 84 28.9 68 20.2 59 59 N 15 24 29.74 1007 10 16.0934 N/A
3:15 pm 15:15 Sunny 84 29 69 20.5 60 60 N 13 20 29.74 1007 10 16.0934 N/A
3:35 pm 15:35 Sunny 84 28.9 68 20 59 59 NNE 14 22 29.74 1007 10 16.0934 N/A
3:55 pm 15:55 Sunny 84 29 68 20 58 58 NNE 10 17 29.77 1008 10 16.0934 N/A
4:15 pm 16:15 Sunny 84 29 67 19.5 57 57 NE 14 22 29.77 1008 10 16.0934 N/A
4:35 pm 16:35 Sunny 84 28.7 67 19.4 57 57 NE 13 20 29.77 1008 10 16.0934 N/A
4:55 pm 16:55 Sunny 83 28.6 68 19.8 59 59 NE 14 22 29.77 1008 10 16.0934 N/A
5:15 pm 17:15 Sunny 83 28.5 68 19.8 59 59 NE 15 24 29.77 1008 10 16.0934 N/A
5:35 pm 17:35 Sunny 83 28.2 67 19.4 59 59 NE 14 22 29.77 1008 10 16.0934 N/A
5:55 pm 17:55 Sunny 82 28 66 18.8 57 57 NE 14 22 29.77 1008 10 16.0934 N/A
6:15 pm 18:15 Sunny 82 27.7 66 18.8 58 58 NE 13 20 29.77 1008 10 16.0934 N/A
6:35 pm 18:35 Sunny 82 27.5 66 19.1 60 60 NE 10 17 29.77 1008 7 11.26538 N/A
6:55 pm 18:55 Sunny 81 27 66 18.7 60 60 ENE 12 19 29.74 1007 7 11.26538 N/A
7:15 pm 19:15 Sunny 80 26.6 67 19.2 64 64 E 10 17 29.74 1007 10 16.0934 N/A
7:35 pm 19:35 Sunny 80 26.4 66 19.1 64 64 ENE 9 15 29.77 1008 10 16.0934 N/A
7:55 pm 19:55 Sunny 78 25.6 66 18.8 66 66 ENE 10 17 29.77 1008 10 16.0934 N/A
8:15 pm 20:15 Sunny 77 25 65 18.6 68 68 ENE 8 13 29.8 1009 10 16.0934 N/A
8:35 pm 20:35 Sunny 75 24 66 19 74 74 ENE 6 9 29.8 1009 10 16.0934 N/A
8:55 pm 20:55 Sunny 73 22.7 67 19.3 81 81 ENE 6 9 29.8 1009 10 16.0934 N/A
9:15 pm 21:15 Clear 72 22 66 18.8 82 82 NE 5 7 29.83 1010 10 16.0934 N/A
9:35 pm 21:35 Clear 70 21.1 66 18.8 87 87 NNE 3 6 29.83 1010 10 16.0934 N/A
9:55 pm 21:55 Clear 71 21.6 66 19.1 86 86 Calm 29.83 1010 10 16.0934 N/A
11:55 pm 23:55 Clear 64 17.7 62 16.6 93 93 NNE 7 11 29.91 1013 10 16.0934 N/A

Powered by AerisWeather